RYR8LM LEIB-LFBO

Flight info

Callsign RYR8LM
Flight time 0h 52m
Altitude 32000
Route EPAMA N856 UMURE DCT XIKEN DCT KARES DCT ARBEK N863 GIROM DCT ASPET
Aircraft B738/M-SADE3FGHIJ1J7LP2RWXY/SB1D1G1

Departure

Time 2026-04-30 08:11
Airport Ibiza Airport (LEIB)

Arrival

Time 2026-04-30 09:04
Airport Toulouse-Blagnac Airport (LFBO)
Time Latitude Longitude Altitude Speed Heading
2026-04-30 07:54 38.87488 1.36734 7 ft 0 kts 17°
2026-04-30 08:07 38.87489 1.36735 7 ft 1 kts 20°
2026-04-30 08:07 38.87488 1.36745 9 ft 1 kts 112°
2026-04-30 08:07 38.87469 1.36753 8 ft 8 kts 158°
2026-04-30 08:07 38.87386 1.36809 8 ft 17 kts 152°
2026-04-30 08:08 38.87284 1.36854 7 ft 13 kts 215°
2026-04-30 08:08 38.87241 1.36754 7 ft 13 kts 243°
2026-04-30 08:08 38.87192 1.36634 9 ft 17 kts 243°
2026-04-30 08:08 38.87123 1.36463 7 ft 25 kts 242°
2026-04-30 08:09 38.87044 1.36273 7 ft 23 kts 242°
2026-04-30 08:09 38.86970 1.36094 7 ft 22 kts 242°
2026-04-30 08:09 38.86897 1.35919 7 ft 22 kts 242°
2026-04-30 08:09 38.86832 1.35772 7 ft 13 kts 220°
2026-04-30 08:10 38.86755 1.35797 6 ft 12 kts 134°
2026-04-30 08:10 38.86718 1.35895 6 ft 11 kts 137°
2026-04-30 08:10 38.86722 1.35953 5 ft 7 kts 61°
2026-04-30 08:10 38.86797 1.36133 4 ft 55 kts 62°
2026-04-30 08:11 38.87094 1.36851 7 ft 124 kts 62°
2026-04-30 08:11 38.87586 1.38043 167 ft 166 kts 61°
2026-04-30 08:11 38.88160 1.39446 593 ft 196 kts 64°
2026-04-30 08:11 38.88533 1.41167 1389 ft 196 kts 76°
2026-04-30 08:12 38.88790 1.42845 2461 ft 195 kts 76°
2026-04-30 08:12 38.89086 1.44635 2929 ft 215 kts 76°
2026-04-30 08:12 38.89422 1.46547 3528 ft 222 kts 75°
2026-04-30 08:12 38.89782 1.48514 4097 ft 230 kts 75°
2026-04-30 08:13 38.90158 1.50527 4712 ft 234 kts 75°
2026-04-30 08:13 38.90543 1.52578 5330 ft 238 kts 76°
2026-04-30 08:13 38.91159 1.54553 5890 ft 244 kts 52°
2026-04-30 08:13 38.92420 1.56146 6130 ft 268 kts 40°
2026-04-30 08:14 38.93871 1.57761 6539 ft 286 kts 40°
2026-04-30 08:14 38.95387 1.59467 7314 ft 291 kts 40°
2026-04-30 08:14 38.96912 1.61206 8149 ft 295 kts 41°
2026-04-30 08:14 38.98457 1.62980 8959 ft 301 kts 41°
2026-04-30 08:15 39.00092 1.64685 9751 ft 305 kts 28°
2026-04-30 08:15 39.02094 1.65549 10503 ft 304 kts
2026-04-30 08:15 39.04204 1.65837 11309 ft 306 kts
2026-04-30 08:15 39.06343 1.66098 12060 ft 311 kts
2026-04-30 08:16 39.08515 1.66361 12821 ft 315 kts 359°
2026-04-30 08:16 39.10674 1.65997 13431 ft 318 kts 337°
2026-04-30 08:16 39.12800 1.64902 13630 ft 340 kts 333°
2026-04-30 08:16 39.15016 1.63636 13966 ft 356 kts 332°
2026-04-30 08:17 39.17294 1.62314 14591 ft 361 kts 332°
2026-04-30 08:17 39.19591 1.60991 15364 ft 362 kts 333°
2026-04-30 08:17 39.21870 1.59689 16092 ft 364 kts 333°
2026-04-30 08:17 39.24202 1.58367 16782 ft 368 kts 333°
2026-04-30 08:18 39.26564 1.57034 17474 ft 371 kts 333°
2026-04-30 08:18 39.28945 1.55694 18167 ft 374 kts 333°
2026-04-30 08:18 39.31349 1.54342 18780 ft 378 kts 333°
2026-04-30 08:18 39.33774 1.52978 19360 ft 381 kts 332°
2026-04-30 08:19 39.36216 1.51605 19936 ft 385 kts 332°
2026-04-30 08:19 39.38655 1.50231 20502 ft 388 kts 332°
2026-04-30 08:19 39.41144 1.48829 21076 ft 391 kts 332°
2026-04-30 08:19 39.43617 1.47434 21621 ft 394 kts 332°
2026-04-30 08:20 39.46146 1.46007 22168 ft 398 kts 332°
2026-04-30 08:20 39.48698 1.44566 22707 ft 401 kts 331°
2026-04-30 08:20 39.51269 1.43113 23240 ft 404 kts 331°
2026-04-30 08:20 39.53861 1.41647 23748 ft 408 kts 331°
2026-04-30 08:21 39.56471 1.40170 24207 ft 410 kts 331°
2026-04-30 08:21 39.59063 1.38704 24684 ft 412 kts 332°
2026-04-30 08:21 39.61833 1.37615 25101 ft 424 kts 346°
2026-04-30 08:21 39.64791 1.37186 25573 ft 428 kts 349°
2026-04-30 08:22 39.67770 1.36843 25995 ft 431 kts 349°
2026-04-30 08:22 39.70771 1.36511 26392 ft 434 kts 349°
2026-04-30 08:22 39.73794 1.36164 26801 ft 436 kts 349°
2026-04-30 08:22 39.76822 1.35798 27217 ft 438 kts 349°
2026-04-30 08:23 39.79861 1.35414 27656 ft 439 kts 348°
2026-04-30 08:23 39.82901 1.35020 28205 ft 437 kts 348°
2026-04-30 08:23 39.85920 1.34624 28812 ft 434 kts 348°
2026-04-30 08:23 39.88924 1.34227 29383 ft 432 kts 347°
2026-04-30 08:24 39.91880 1.33834 29885 ft 432 kts 347°
2026-04-30 08:24 39.94871 1.33435 30332 ft 431 kts 347°
2026-04-30 08:24 39.97845 1.33039 30792 ft 429 kts 347°
2026-04-30 08:24 40.00758 1.32652 31260 ft 427 kts 347°
2026-04-30 08:25 40.03704 1.32260 31687 ft 425 kts 347°
2026-04-30 08:25 40.06654 1.31866 32050 ft 426 kts 347°
2026-04-30 08:25 40.09630 1.31465 32044 ft 431 kts 347°
2026-04-30 08:26 40.15668 1.30652 32087 ft 443 kts 347°
2026-04-30 08:26 40.21890 1.29817 32079 ft 456 kts 347°
2026-04-30 08:27 40.28241 1.28969 32082 ft 467 kts 347°
2026-04-30 08:27 40.34781 1.28093 32078 ft 476 kts 347°
2026-04-30 08:28 40.41383 1.27207 32061 ft 476 kts 347°
2026-04-30 08:28 40.47985 1.26314 32070 ft 476 kts 347°
2026-04-30 08:29 40.54542 1.25425 32072 ft 476 kts 347°
2026-04-30 08:29 40.61126 1.24531 32078 ft 475 kts 347°
2026-04-30 08:30 40.67710 1.23635 32080 ft 475 kts 347°
2026-04-30 08:30 40.74298 1.22736 32083 ft 475 kts 347°
2026-04-30 08:31 40.80841 1.21834 32081 ft 475 kts 347°
2026-04-30 08:31 40.87419 1.20926 32083 ft 475 kts 347°
2026-04-30 08:32 40.94002 1.20015 32080 ft 476 kts 347°
2026-04-30 08:32 41.00602 1.19101 32077 ft 476 kts 347°
2026-04-30 08:33 41.07190 1.18187 32077 ft 476 kts 346°
2026-04-30 08:33 41.13777 1.17271 32078 ft 476 kts 346°
2026-04-30 08:34 41.20392 1.16477 32075 ft 478 kts 348°
2026-04-30 08:34 41.27031 1.15826 32083 ft 478 kts 348°
2026-04-30 08:35 41.33625 1.15149 32085 ft 478 kts 348°
2026-04-30 08:35 41.40255 1.14462 32096 ft 476 kts 348°
2026-04-30 08:36 41.46878 1.13778 32095 ft 477 kts 348°
2026-04-30 08:36 41.53501 1.13093 32106 ft 477 kts 348°
2026-04-30 08:37 41.60127 1.12377 32104 ft 477 kts 348°
2026-04-30 08:37 41.66707 1.11642 32100 ft 477 kts 348°
2026-04-30 08:38 41.73324 1.10920 32097 ft 477 kts 349°
2026-04-30 08:38 41.79954 1.10228 32092 ft 476 kts 349°
2026-04-30 08:38 41.83211 1.09895 32071 ft 461 kts 349°
2026-04-30 08:39 41.86365 1.09575 32065 ft 445 kts 349°
2026-04-30 08:39 41.89400 1.09264 32061 ft 430 kts 349°
2026-04-30 08:39 41.92350 1.08951 32090 ft 432 kts 349°
2026-04-30 08:40 41.98372 1.08296 32100 ft 442 kts 349°
2026-04-30 08:40 42.04461 1.07654 31886 ft 432 kts 349°
2026-04-30 08:40 42.07437 1.07342 31588 ft 425 kts 349°
2026-04-30 08:41 42.10373 1.07027 31200 ft 422 kts 350°
2026-04-30 08:41 42.13290 1.06710 30794 ft 419 kts 350°
2026-04-30 08:41 42.16187 1.06393 30415 ft 417 kts 350°
2026-04-30 08:41 42.19069 1.06077 29993 ft 415 kts 351°
2026-04-30 08:42 42.21937 1.05763 29526 ft 412 kts 351°
2026-04-30 08:42 42.24786 1.05451 29104 ft 409 kts 351°
2026-04-30 08:42 42.27611 1.05143 28694 ft 406 kts 351°
2026-04-30 08:42 42.30415 1.04837 28258 ft 403 kts 351°
2026-04-30 08:43 42.33169 1.04535 27843 ft 400 kts 351°
2026-04-30 08:43 42.35940 1.04231 27426 ft 397 kts 351°
2026-04-30 08:43 42.38687 1.03929 27011 ft 395 kts 351°
2026-04-30 08:43 42.41421 1.03630 26621 ft 392 kts 351°
2026-04-30 08:44 42.44135 1.03332 26194 ft 390 kts 352°
2026-04-30 08:44 42.46830 1.03039 25812 ft 387 kts 352°
2026-04-30 08:44 42.49509 1.02750 25410 ft 385 kts 352°
2026-04-30 08:44 42.52183 1.02462 25015 ft 384 kts 352°
2026-04-30 08:45 42.54840 1.02174 24608 ft 382 kts 352°
2026-04-30 08:45 42.57455 1.01889 24218 ft 381 kts 352°
2026-04-30 08:45 42.60103 1.01600 23815 ft 381 kts 352°
2026-04-30 08:45 42.62746 1.01312 23346 ft 380 kts 352°
2026-04-30 08:46 42.65381 1.01022 22936 ft 379 kts 352°
2026-04-30 08:46 42.68005 1.00736 22488 ft 377 kts 353°
2026-04-30 08:46 42.70614 1.00453 22097 ft 375 kts 353°
2026-04-30 08:46 42.73208 1.00170 21698 ft 373 kts 353°
2026-04-30 08:47 42.75793 0.99888 21294 ft 371 kts 353°
2026-04-30 08:47 42.78364 0.99615 20900 ft 369 kts 354°
2026-04-30 08:47 42.80929 0.99391 20475 ft 368 kts 354°
2026-04-30 08:47 42.83444 0.99208 20106 ft 367 kts 355°
2026-04-30 08:48 42.85997 0.99035 19717 ft 366 kts 355°
2026-04-30 08:48 42.88528 0.98859 19325 ft 364 kts 355°
2026-04-30 08:48 42.91055 0.98676 18922 ft 363 kts 355°
2026-04-30 08:48 42.93568 0.98488 18568 ft 360 kts 355°
2026-04-30 08:49 42.96078 0.98298 18131 ft 361 kts 356°
2026-04-30 08:49 42.98591 0.98108 17716 ft 360 kts 355°
2026-04-30 08:49 43.00244 0.98017 17435 ft 359 kts 359°
2026-04-30 08:49 43.02730 0.98199 17065 ft 357 kts
2026-04-30 08:50 43.05198 0.98519 16689 ft 355 kts
2026-04-30 08:50 43.07652 0.98872 16312 ft 353 kts
2026-04-30 08:50 43.10091 0.99222 15931 ft 351 kts
2026-04-30 08:50 43.12498 0.99558 15567 ft 350 kts
2026-04-30 08:51 43.14919 0.99886 15194 ft 349 kts
2026-04-30 08:51 43.17337 1.00206 14815 ft 347 kts
2026-04-30 08:51 43.19741 1.00521 14450 ft 346 kts
2026-04-30 08:51 43.22137 1.00831 14070 ft 345 kts
2026-04-30 08:52 43.24532 1.01140 13672 ft 345 kts
2026-04-30 08:52 43.26886 1.01444 13274 ft 343 kts
2026-04-30 08:52 43.29261 1.01750 12892 ft 342 kts
2026-04-30 08:52 43.31623 1.02054 12509 ft 340 kts
2026-04-30 08:53 43.33967 1.02356 12147 ft 338 kts
2026-04-30 08:53 43.36062 1.02627 11819 ft 336 kts
2026-04-30 08:53 43.38379 1.02926 11449 ft 334 kts
2026-04-30 08:53 43.40593 1.03212 11107 ft 333 kts
2026-04-30 08:54 43.42896 1.03510 10743 ft 331 kts
2026-04-30 08:54 43.45187 1.03806 10430 ft 328 kts
2026-04-30 08:54 43.47362 1.04088 10294 ft 319 kts
2026-04-30 08:54 43.49546 1.04371 10146 ft 311 kts
2026-04-30 08:55 43.51656 1.04645 9902 ft 307 kts
2026-04-30 08:55 43.53782 1.04921 9585 ft 305 kts
2026-04-30 08:55 43.55888 1.05195 9275 ft 303 kts
2026-04-30 08:55 43.57892 1.05456 8983 ft 301 kts
2026-04-30 08:56 43.59972 1.05726 8689 ft 299 kts
2026-04-30 08:56 43.62030 1.05994 8427 ft 296 kts
2026-04-30 08:56 43.64046 1.06256 8210 ft 286 kts
2026-04-30 08:56 43.66024 1.06510 7754 ft 284 kts
2026-04-30 08:57 43.67987 1.06758 7307 ft 282 kts
2026-04-30 08:57 43.69943 1.07005 6950 ft 282 kts
2026-04-30 08:57 43.71842 1.07245 6880 ft 264 kts
2026-04-30 08:57 43.73590 1.07466 6756 ft 244 kts
2026-04-30 08:58 43.75225 1.07689 6424 ft 236 kts 10°
2026-04-30 08:58 43.76690 1.08627 5951 ft 233 kts 44°
2026-04-30 08:58 43.77582 1.10443 5567 ft 227 kts 68°
2026-04-30 08:58 43.78087 1.12503 5128 ft 226 kts 73°
2026-04-30 08:59 43.78534 1.14589 4710 ft 225 kts 74°
2026-04-30 08:59 43.78949 1.16702 4207 ft 224 kts 84°
2026-04-30 08:59 43.78657 1.18682 4019 ft 205 kts 125°
2026-04-30 08:59 43.77782 1.20161 3793 ft 195 kts 134°
2026-04-30 09:00 43.76831 1.21452 3553 ft 189 kts 137°
2026-04-30 09:00 43.75846 1.22639 3315 ft 186 kts 141°
2026-04-30 09:00 43.74830 1.23732 3061 ft 184 kts 143°
2026-04-30 09:00 43.73825 1.24784 2822 ft 183 kts 143°
2026-04-30 09:01 43.72828 1.25822 2566 ft 177 kts 142°
2026-04-30 09:01 43.71870 1.26817 2358 ft 167 kts 142°
2026-04-30 09:01 43.70980 1.27745 2161 ft 153 kts 142°
2026-04-30 09:01 43.70153 1.28609 1935 ft 145 kts 142°
2026-04-30 09:02 43.68556 1.30281 1610 ft 146 kts 143°
2026-04-30 09:02 43.67730 1.31137 1425 ft 150 kts 142°
2026-04-30 09:02 43.66896 1.32000 1186 ft 150 kts 143°
2026-04-30 09:03 43.66073 1.32877 957 ft 148 kts 144°
2026-04-30 09:03 43.65253 1.33715 744 ft 146 kts 142°
2026-04-30 09:03 43.64466 1.34539 553 ft 142 kts 143°
2026-04-30 09:03 43.63693 1.35342 493 ft 128 kts 143°
2026-04-30 09:04 43.63098 1.35960 489 ft 86 kts 142°
2026-04-30 09:04 43.62739 1.36333 493 ft 43 kts 143°
2026-04-30 09:04 43.62615 1.36463 486 ft 1 kts 142°
2026-04-30 09:04 43.62569 1.36511 493 ft 15 kts 142°
2026-04-30 09:05 43.62475 1.36609 493 ft 19 kts 143°
2026-04-30 09:05 43.62449 1.36776 493 ft 19 kts 81°
2026-04-30 09:05 43.62467 1.36957 490 ft 21 kts 83°
2026-04-30 09:05 43.62488 1.37171 485 ft 22 kts 79°
2026-04-30 09:06 43.62534 1.37291 489 ft 12 kts 52°
2026-04-30 09:06 43.62606 1.37419 493 ft 20 kts 52°
2026-04-30 09:06 43.62682 1.37577 486 ft 19 kts 54°
2026-04-30 09:06 43.62744 1.37621 493 ft 9 kts 331°
2026-04-30 09:07 43.62793 1.37576 493 ft 8 kts 346°
2026-04-30 09:07 43.62830 1.37623 488 ft 6 kts 53°
2026-04-30 09:07 43.62833 1.37629 488 ft 0 kts 53°